Simultaneous Nadir Overpasses (SNOs) Predictions

Prediction of SNOs between AQUA and NPP Satellite Orbit:

Table of predicted SNOs for the next 14.0 days since TLE Epoch: 3/30/2017
Index Date (AQUA) Time (AQUA) Lat,Lon (AQUA) SZA (AQUA ) Date (NPP) Time (NPP) Lat,Lon (NPP) SZA (NPP ) Distance(km) Time Diff (sec)
1 04/01/2017 06:22:30 74.90, -39.63 94.11 04/01/2017 06:21:36 74.89, -39.72 94.19 2.76 54
2 04/01/2017 07:11:28 -76.38, 132.32 87.59 04/01/2017 07:11:50 -76.39, 132.39 87.63 1.77 22
3 04/03/2017 22:38:40 75.66, 78.33 92.22 04/03/2017 22:38:16 75.66, 78.35 92.24 0.35 24
4 04/03/2017 23:27:49 -76.58,-111.12 88.87 04/03/2017 23:28:42 -76.58,-111.14 88.91 0.61 53
5 04/06/2017 14:06:01 -74.60, 23.75 87.62 04/06/2017 14:04:51 -74.59, 23.67 87.53 2.70 70
6 04/06/2017 14:54:59 75.94,-164.92 90.86 04/06/2017 14:55:06 75.94,-164.96 90.86 1.00 7
7 04/09/2017 06:22:15 -75.13, 141.01 89.23 04/09/2017 06:21:36 -75.12, 140.92 89.17 2.73 39
8 04/09/2017 07:11:15 76.36, -47.72 89.36 04/09/2017 07:11:53 76.35, -47.74 89.34 0.83 38
9 04/11/2017 22:38:26 -75.74,-101.39 90.92 04/11/2017 22:38:18 -75.73,-101.43 90.90 1.25 8




NCC Satellite Simultaneous Nadir Overpasses (SNOs) Prediction Service
